Change the Weather History Date:

Tuesday, January 24, 2012

  Actual Average Record
Temperature  
Mean Temperature 38 °F -  
Max Temperature 53 °F 39 °F 64 °F (2005)
Min Temperature 24 °F 17 °F 1 °F (2008)
Degree Days  
Heating Degree Days 26    
Moisture  
Dew Point 26 °F    
Average Humidity 61    
Maximum Humidity 75    
Minimum Humidity 44    
Precipitation  
Precipitation 0.00 in - - ()
Sea Level Pressure  
Sea Level Pressure 29.98 in    
Wind  
Wind Speed 7 mph (SSE)    
Max Wind Speed 17 mph    
Max Gust Speed 24 mph    
Visibility 10 miles    
Events      
Averages and records for this station are not official NWS values.
T = Trace of Precipitation, MM = Missing Value Source: NWS Daily Summary

Daily Weather History Graph

Daily Weather History Graph

Search for Another Location

Airport or City:

Trip Planner

Search our weather history database for the weather conditions in past years. The results will help you decide how hot, cold, wet, or windy it might be!

Date:

Astronomy

Jan. 24, 2012 Rise Set
Actual Time 7:49 AM CST 5:48 PM CST
Civil Twilight 7:21 AM CST 6:17 PM CST
Nautical Twilight 6:48 AM CST 6:49 PM CST
Astronomical Twilight 6:17 AM CST 7:21 PM CST
Moon 8:21 AM CST (1/24) 7:40 PM CST (1/24)
Length of Visible Light 10h 56m
Length of Day
9h 59m
New Moon, 2% of the Moon is Illuminated
Jan 24
New Moon
Jan 30
First Quarter
Feb 7
Full
Feb 14
Last Quarter
Feb 21
New

Hourly Weather History & Observations

Time (CST) Temp. Windchill Dew Point Humidity Pressure Visibility Wind Dir Wind Speed Gust Speed Precip Events Conditions
12:15 AM 24.8 °F - 17.6 °F 74% 29.98 in 10.0 mi Calm Calm - N/A   Clear
12:35 AM 24.8 °F - 17.6 °F 74% 29.98 in 10.0 mi Calm Calm - N/A   Clear
12:55 AM 26.6 °F - 17.6 °F 69% 29.97 in 10.0 mi Calm Calm - N/A   Clear
1:15 AM 24.8 °F - 17.6 °F 74% 29.97 in 10.0 mi Calm Calm - N/A   Clear
1:35 AM 26.6 °F 22.6 °F 17.6 °F 69% 29.97 in 10.0 mi SE 3.5 mph - N/A   Clear
1:55 AM 26.6 °F 21.2 °F 17.6 °F 69% 29.97 in 10.0 mi ESE 4.6 mph - N/A   Clear
2:35 AM 26.6 °F 21.2 °F 17.6 °F 69% 29.97 in 10.0 mi ESE 4.6 mph - N/A   Clear
2:55 AM 26.6 °F 20.0 °F 17.6 °F 69% 29.97 in 10.0 mi ESE 5.8 mph - N/A   Clear
3:15 AM 26.6 °F 21.2 °F 17.6 °F 69% 29.97 in 10.0 mi East 4.6 mph - N/A   Clear
3:35 AM 26.6 °F 19.1 °F 17.6 °F 69% 29.97 in 10.0 mi East 6.9 mph - N/A   Clear
3:55 AM 26.6 °F 18.2 °F 19.4 °F 74% 29.96 in 10.0 mi ESE 8.1 mph - N/A   Clear
4:15 AM 26.6 °F 18.2 °F 19.4 °F 74% 29.96 in 10.0 mi ESE 8.1 mph - N/A   Clear
4:35 AM 28.4 °F 19.7 °F 19.4 °F 69% 29.95 in 10.0 mi ESE 9.2 mph - N/A   Clear
4:55 AM 30.2 °F 21.3 °F 21.2 °F 69% 29.95 in 10.0 mi ESE 10.4 mph - N/A   Clear
5:15 AM 30.2 °F 21.9 °F 21.2 °F 69% 29.95 in 10.0 mi ESE 9.2 mph - N/A   Clear
5:35 AM 30.2 °F 21.9 °F 23.0 °F 75% 29.95 in 10.0 mi SE 9.2 mph - N/A   Clear
5:55 AM 30.2 °F 21.3 °F 23.0 °F 75% 29.95 in 10.0 mi SE 10.4 mph - N/A   Clear
6:15 AM 32.0 °F 22.5 °F 24.8 °F 75% 29.95 in 10.0 mi SE 12.7 mph - N/A   Clear
6:35 AM 33.8 °F 24.8 °F 24.8 °F 70% 29.95 in 10.0 mi SE 12.7 mph - N/A   Clear
6:55 AM 33.8 °F 25.3 °F 24.8 °F 70% 29.95 in 10.0 mi SE 11.5 mph - N/A   Clear
7:15 AM 33.8 °F 25.8 °F 24.8 °F 70% 29.96 in 10.0 mi SE 10.4 mph - N/A   Clear
7:35 AM 33.8 °F 27.0 °F 24.8 °F 70% 29.96 in 10.0 mi ESE 8.1 mph - N/A   Clear
7:55 AM 33.8 °F 27.7 °F 24.8 °F 70% 29.96 in 10.0 mi East 6.9 mph - N/A   Clear
8:15 AM 35.6 °F 31.7 °F 26.6 °F 70% 29.97 in 10.0 mi ESE 4.6 mph - N/A   Clear
8:35 AM 35.6 °F 29.2 °F 26.6 °F 70% 29.97 in 10.0 mi SE 8.1 mph - N/A   Clear
8:55 AM 37.4 °F 30.8 °F 26.6 °F 65% 29.97 in 10.0 mi SE 9.2 mph - N/A   Partly Cloudy
9:15 AM 37.4 °F 28.5 °F 28.4 °F 70% 29.98 in 10.0 mi SSE 15.0 mph - N/A   Partly Cloudy
9:35 AM 39.2 °F 31.6 °F 28.4 °F 65% 29.98 in 10.0 mi SE 12.7 mph - N/A   Clear
9:55 AM 39.2 °F 30.8 °F 28.4 °F 65% 29.99 in 10.0 mi SE 15.0 mph - N/A   Mostly Cloudy
10:15 AM 41.0 °F 34.3 °F 28.4 °F 61% 30.01 in 10.0 mi SE 11.5 mph - N/A   Mostly Cloudy
10:35 AM 42.8 °F 37.0 °F 28.4 °F 57% 30.02 in 10.0 mi SSE 10.4 mph - N/A   Scattered Clouds
10:55 AM 44.6 °F 38.1 °F 30.2 °F 57% 30.02 in 10.0 mi SSE 13.8 mph 19.6 mph N/A   Partly Cloudy
11:15 AM 44.6 °F 37.4 °F 30.2 °F 57% 30.02 in 10.0 mi SSE 16.1 mph - N/A   Clear
11:35 AM 46.4 °F 39.5 °F 30.2 °F 53% 30.01 in 10.0 mi SSE 17.3 mph - N/A   Clear
11:55 AM 48.2 °F - 30.2 °F 50% 30.01 in 10.0 mi SSE 15.0 mph - N/A   Clear
12:15 PM 48.2 °F - 30.2 °F 50% 30.01 in 10.0 mi SSE 15.0 mph - N/A   Clear
12:35 PM 48.2 °F - 30.2 °F 50% 30.00 in 10.0 mi South 15.0 mph 23.0 mph N/A   Clear
12:55 PM 50.0 °F - 32.0 °F 50% 29.99 in 10.0 mi South 16.1 mph - N/A   Clear
1:15 PM 50.0 °F - 30.2 °F 47% 29.98 in 10.0 mi South 13.8 mph - N/A   Clear
1:35 PM 50.0 °F - 32.0 °F 50% 29.98 in 10.0 mi South 11.5 mph - N/A   Clear
1:55 PM 51.8 °F - 32.0 °F 47% 29.98 in 10.0 mi SSE 11.5 mph - N/A   Clear
2:15 PM 51.8 °F - 33.8 °F 50% 29.97 in 10.0 mi South 12.7 mph - N/A   Clear
2:35 PM 53.6 °F - 33.8 °F 47% 29.98 in 10.0 mi SSW 16.1 mph 24.2 mph N/A   Clear
2:55 PM 53.6 °F - 33.8 °F 47% 29.98 in 10.0 mi South 13.8 mph - N/A   Clear
3:15 PM 53.6 °F - 32.0 °F 44% 29.99 in 10.0 mi South 11.5 mph 16.1 mph N/A   Clear
3:35 PM 53.6 °F - 33.8 °F 47% 30.00 in 10.0 mi SSW 12.7 mph - N/A   Clear
3:55 PM 53.6 °F - 33.8 °F 47% 30.00 in 10.0 mi SSW 11.5 mph - N/A   Clear
4:15 PM 53.6 °F - 33.8 °F 47% 30.01 in 10.0 mi SSW 9.2 mph - N/A   Clear
4:55 PM 51.8 °F - 33.8 °F 50% 30.03 in 10.0 mi SW 4.6 mph - N/A   Clear
5:15 PM 50.0 °F - 32.0 °F 50% 30.04 in 10.0 mi South 4.6 mph - N/A   Clear
5:35 PM 48.2 °F - 32.0 °F 54% 30.05 in 10.0 mi South 4.6 mph - N/A   Clear
5:55 PM 48.2 °F - 30.2 °F 50% 30.06 in 10.0 mi WNW 6.9 mph - N/A   Clear
6:15 PM 46.4 °F 40.4 °F 30.2 °F 53% 30.07 in 10.0 mi NNW 13.8 mph - N/A   Clear
6:35 PM 42.8 °F 36.2 °F 28.4 °F 57% 30.08 in 10.0 mi NNW 12.7 mph - N/A   Clear
6:55 PM 42.8 °F 36.2 °F 28.4 °F 57% 30.09 in 10.0 mi NNW 12.7 mph - N/A   Clear
7:35 PM 39.2 °F 32.0 °F 26.6 °F 61% 30.09 in 10.0 mi North 11.5 mph - N/A   Clear
7:55 PM 37.4 °F 30.3 °F 26.6 °F 65% 30.10 in 10.0 mi NNW 10.4 mph - N/A   Clear
8:15 PM 35.6 °F 28.0 °F 24.8 °F 65% 30.10 in 10.0 mi NNW 10.4 mph - N/A   Clear
8:35 PM 35.6 °F 30.7 °F 24.8 °F 65% 30.11 in 10.0 mi NNW 5.8 mph - N/A   Clear
8:55 PM 35.6 °F 28.6 °F 24.8 °F 65% 30.12 in 10.0 mi NNW 9.2 mph - N/A   Clear
9:15 PM 35.6 °F 29.2 °F 24.8 °F 65% 30.13 in 10.0 mi NNW 8.1 mph - N/A   Clear
9:35 PM 35.6 °F 28.0 °F 26.6 °F 70% 30.14 in 10.0 mi NNW 10.4 mph - N/A   Clear
9:55 PM 35.6 °F 27.5 °F 26.6 °F 70% 30.15 in 10.0 mi NNW 11.5 mph - N/A   Clear
10:15 PM 35.6 °F 28.0 °F 24.8 °F 65% 30.16 in 10.0 mi NNW 10.4 mph - N/A   Clear
10:35 PM 35.6 °F 28.0 °F 24.8 °F 65% 30.17 in 10.0 mi NNW 10.4 mph - N/A   Clear
10:55 PM 35.6 °F 28.0 °F 24.8 °F 65% 30.18 in 10.0 mi NNW 10.4 mph - N/A   Clear
11:15 PM 35.6 °F 28.0 °F 24.8 °F 65% 30.19 in 10.0 mi NNW 10.4 mph - N/A   Clear
11:35 PM 33.8 °F 27.0 °F 24.8 °F 70% 30.20 in 10.0 mi NW 8.1 mph - N/A   Clear
11:55 PM 33.8 °F 25.8 °F 24.8 °F 70% 30.20 in 10.0 mi NW 10.4 mph - N/A   Clear